• In Hungary
  • List of Countries
  • For 7 days
  • Water Temperature
  • Satellite Maps
  • Weather Map
  • News
  • Weather Widgets
  • user-avatar
    Login

    Hourly Weather Brisbane

    Today, 20 January, Saturday

    Time Temperature Precipitation Wind Pressure Humidity
    00:00 +21°C° 0 mm 2 mps 758 mmHg 71%
    01:00 +20°C° 0 mm 2 mps 758 mmHg 72%
    02:00 +20°C° 0 mm 2 mps 757 mmHg 73%
    03:00 +19°C° 0 mm 2 mps 757 mmHg 73%
    04:00 +19°C° 0 mm 2 mps 757 mmHg 75%
    05:00 +20°C° 0 mm 3 mps 757 mmHg 70%
    06:00 +21°C° 0 mm 3 mps 758 mmHg 66%
    07:00 +24°C° 0 mm 3 mps 758 mmHg 61%
    08:00 +26°C° 0 mm 3 mps 758 mmHg 53%
    09:00 +29°C° 0 mm 4 mps 758 mmHg 46%
    10:00 +32°C° 0 mm 4 mps 758 mmHg 38%
    11:00 +34°C° 0 mm 4 mps 757 mmHg 36%
    12:00 +35°C° 0 mm 4 mps 757 mmHg 34%
    13:00 +36°C° 0 mm 5 mps 757 mmHg 32%
    14:00 +35°C° 0 mm 5 mps 756 mmHg 35%
    15:00 +35°C° 0 mm 5 mps 756 mmHg 38%
    16:00 +34°C° 0 mm 6 mps 756 mmHg 42%
    17:00 +32°C° 0 mm 5 mps 756 mmHg 50%
    18:00 +29°C° 0 mm 5 mps 756 mmHg 57%
    19:00 +27°C° 0 mm 5 mps 757 mmHg 65%
    20:00 +26°C° 0 mm 4 mps 757 mmHg 70%
    21:00 +25°C° 0 mm 4 mps 758 mmHg 76%
    22:00 +23°C° 0 mm 4 mps 758 mmHg 81%
    23:00 +23°C° 0 mm 4 mps 758 mmHg 83%

    Tomorrow, 21 January, Sunday

    Time Temperature Precipitation Wind Pressure Humidity
    00:00 +22°C° 0 mm 3 mps 757 mmHg 85%
    01:00 +22°C° 0 mm 3 mps 757 mmHg 87%
    02:00 +21°C° 0 mm 3 mps 757 mmHg 88%
    03:00 +21°C° 0 mm 3 mps 757 mmHg 89%
    04:00 +21°C° 0 mm 3 mps 757 mmHg 89%
    05:00 +22°C° 0.1 mm 3 mps 757 mmHg 85%
    06:00 +24°C° 0.1 mm 3 mps 757 mmHg 81%
    07:00 +25°C° 0.1 mm 3 mps 758 mmHg 76%
    08:00 +27°C° 0.1 mm 3 mps 758 mmHg 68%
    09:00 +29°C° 0.1 mm 3 mps 758 mmHg 60%
    10:00 +31°C° 0.1 mm 3 mps 758 mmHg 52%
    11:00 +31°C° 0.1 mm 3 mps 757 mmHg 50%
    12:00 +33°C° 0.1 mm 3 mps 757 mmHg 48%
    13:00 +33°C° 0.1 mm 4 mps 756 mmHg 46%
    14:00 +33°C° 0 mm 4 mps 756 mmHg 47%
    15:00 +33°C° 0 mm 4 mps 756 mmHg 48%
    16:00 +33°C° 0 mm 4 mps 755 mmHg 49%
    17:00 +30°C° 0 mm 4 mps 756 mmHg 56%
    18:00 +29°C° 0 mm 4 mps 756 mmHg 63%
    19:00 +27°C° 0 mm 3 mps 756 mmHg 71%
    20:00 +26°C° 0 mm 3 mps 757 mmHg 75%
    21:00 +26°C° 0 mm 2 mps 757 mmHg 79%
    22:00 +25°C° 0 mm 2 mps 758 mmHg 83%
    23:00 +25°C° 0 mm 2 mps 758 mmHg 85%

    Day after tomorrow, 22 January, Monday

    Time Temperature Precipitation Wind Pressure Humidity
    00:00 +24°C° 0 mm 2 mps 757 mmHg 87%
    01:00 +24°C° 0 mm 2 mps 757 mmHg 89%
    02:00 +23°C° 0.1 mm 2 mps 757 mmHg 90%
    03:00 +23°C° 0.1 mm 1 mps 756 mmHg 91%
    04:00 +23°C° 0.1 mm 1 mps 756 mmHg 91%
    05:00 +24°C° 0.1 mm 1 mps 757 mmHg 87%
    06:00 +25°C° 0.1 mm 1 mps 757 mmHg 83%
    07:00 +26°C° 0.1 mm 1 mps 758 mmHg 78%
    08:00 +28°C° 0 mm 1 mps 757 mmHg 68%
    09:00 +30°C° 0 mm 1 mps 757 mmHg 58%
    10:00 +34°C° 0 mm 2 mps 757 mmHg 47%
    11:00 +34°C° 0 mm 2 mps 757 mmHg 46%
    12:00 +34°C° 0 mm 2 mps 756 mmHg 44%
    13:00 +35°C° 0 mm 3 mps 755 mmHg 42%
    14:00 +34°C° 0 mm 3 mps 755 mmHg 43%
    15:00 +34°C° 0 mm 4 mps 755 mmHg 43%
    16:00 +34°C° 0 mm 4 mps 754 mmHg 44%
    17:00 +32°C° 0 mm 4 mps 755 mmHg 51%
    18:00 +29°C° 0 mm 4 mps 755 mmHg 58%
    19:00 +28°C° 0 mm 4 mps 756 mmHg 65%
    20:00 +27°C° 0 mm 3 mps 756 mmHg 70%
    21:00 +26°C° 0 mm 3 mps 757 mmHg 76%
    22:00 +25°C° 0 mm 3 mps 757 mmHg 81%
    23:00 +24°C° 0 mm 2 mps 757 mmHg 83%

    23 January, Tuesday

    Time Temperature Precipitation Wind Pressure Humidity
    00:00 +24°C° 0 mm 2 mps 757 mmHg 85%
    01:00 +24°C° 0 mm 1 mps 756 mmHg 87%
    02:00 +23°C° 0 mm 1 mps 756 mmHg 88%
    03:00 +23°C° 0 mm 1 mps 756 mmHg 90%
    04:00 +23°C° 0 mm 1 mps 756 mmHg 91%
    05:00 +24°C° 0 mm 1 mps 756 mmHg 86%
    06:00 +25°C° 0 mm 1 mps 757 mmHg 81%
    07:00 +24°C° 0 mm 0 mps 757 mmHg 76%
    08:00 +28°C° 0 mm 1 mps 757 mmHg 67%
    09:00 +30°C° 0 mm 2 mps 757 mmHg 57%
    10:00 +32°C° 0 mm 2 mps 757 mmHg 48%
    11:00 +34°C° 0 mm 2 mps 756 mmHg 45%
    12:00 +35°C° 0 mm 3 mps 756 mmHg 42%
    13:00 +35°C° 0 mm 3 mps 755 mmHg 39%
    14:00 +35°C° 0 mm 4 mps 755 mmHg 42%
    15:00 +34°C° 0 mm 4 mps 754 mmHg 44%
    16:00 +34°C° 0 mm 4 mps 754 mmHg 46%
    17:00 +32°C° 0 mm 4 mps 754 mmHg 54%
    18:00 +29°C° 0 mm 4 mps 755 mmHg 63%
    19:00 +27°C° 0 mm 4 mps 755 mmHg 72%
    20:00 +27°C° 0 mm 3 mps 756 mmHg 77%
    21:00 +26°C° 0 mm 3 mps 756 mmHg 82%
    22:00 +25°C° 0 mm 3 mps 757 mmHg 86%
    23:00 +25°C° 0 mm 2 mps 756 mmHg 87%

    24 January, Wednesday

    Time Temperature Precipitation Wind Pressure Humidity
    00:00 +25°C° 0 mm 2 mps 756 mmHg 88%
    01:00 +24°C° 0 mm 2 mps 755 mmHg 88%
    02:00 +24°C° 0 mm 2 mps 755 mmHg 89%
    03:00 +24°C° 0 mm 1 mps 755 mmHg 89%
    04:00 +24°C° 0 mm 1 mps 755 mmHg 90%
    05:00 +25°C° 0.1 mm 2 mps 755 mmHg 86%
    06:00 +26°C° 0.1 mm 2 mps 755 mmHg 83%
    07:00 +27°C° 0.1 mm 2 mps 756 mmHg 79%
    08:00 +28°C° 0.1 mm 3 mps 756 mmHg 72%
    09:00 +30°C° 0.1 mm 3 mps 756 mmHg 65%
    10:00 +33°C° 0.1 mm 4 mps 756 mmHg 58%
    11:00 +33°C° 0.1 mm 4 mps 755 mmHg 55%
    12:00 +34°C° 0.1 mm 4 mps 755 mmHg 51%
    13:00 +35°C° 0.1 mm 5 mps 754 mmHg 48%
    14:00 +35°C° 0 mm 5 mps 754 mmHg 50%
    15:00 +34°C° 0 mm 5 mps 754 mmHg 52%
    16:00 +34°C° 0 mm 5 mps 753 mmHg 53%
    17:00 +32°C° 0 mm 5 mps 754 mmHg 61%
    18:00 +30°C° 0 mm 4 mps 754 mmHg 69%
    19:00 +28°C° 0 mm 4 mps 755 mmHg 76%
    20:00 +27°C° 0 mm 4 mps 755 mmHg 80%
    21:00 +27°C° 0 mm 4 mps 755 mmHg 85%
    22:00 +26°C° 0 mm 3 mps 756 mmHg 89%
    23:00 +26°C° 0.1 mm 3 mps 755 mmHg 90%

    25 January, Thursday

    Time Temperature Precipitation Wind Pressure Humidity
    00:00 +26°C° 0.1 mm 3 mps 755 mmHg 90%
    01:00 +25°C° 0.1 mm 3 mps 754 mmHg 91%
    02:00 +25°C° 0.3 mm 3 mps 754 mmHg 91%
    03:00 +25°C° 0.3 mm 3 mps 754 mmHg 92%
    04:00 +25°C° 0.3 mm 3 mps 754 mmHg 92%
    05:00 +26°C° 0.3 mm 3 mps 755 mmHg 89%
    06:00 +27°C° 0.3 mm 4 mps 755 mmHg 87%
    07:00 +27°C° 0.3 mm 4 mps 755 mmHg 84%
    08:00 +28°C° 0.6 mm 4 mps 755 mmHg 79%
    09:00 +29°C° 0.6 mm 5 mps 755 mmHg 75%
    10:00 +30°C° 0.6 mm 6 mps 755 mmHg 70%
    11:00 +32°C° 0.7 mm 6 mps 755 mmHg 69%
    12:00 +32°C° 0.7 mm 6 mps 755 mmHg 68%
    13:00 +32°C° 0.7 mm 6 mps 754 mmHg 66%
    14:00 +32°C° 0.4 mm 6 mps 754 mmHg 66%
    15:00 +32°C° 0.4 mm 6 mps 754 mmHg 66%
    16:00 +32°C° 0.4 mm 6 mps 754 mmHg 66%
    17:00 +29°C° 0.1 mm 5 mps 754 mmHg 71%
    18:00 +28°C° 0.1 mm 5 mps 755 mmHg 76%
    19:00 +27°C° 0.1 mm 4 mps 755 mmHg 80%
    20:00 +27°C° 0.2 mm 4 mps 755 mmHg 83%
    21:00 +26°C° 0.2 mm 4 mps 756 mmHg 86%
    22:00 +26°C° 0.2 mm 4 mps 756 mmHg 89%
    23:00 +26°C° 0.1 mm 4 mps 755 mmHg 89%
    Show more